Location: ??????????
(48.4699°N, 37.9573°E)
Time: 12:55:08
(UTC+00:00)

CZ-3B R/B - Pass Details

Date: 20 January 2021
Orbit: 277 x 17417 km, 54.8° (Epoch: 26 February)

Event Time Altitude Azimuth Distance (km) Brightness Sun altitude
Rises 17:06:37 0° 297° (WNW) 2,300 6.0 -29.2°
Reaches altitude 10° 17:07:56 10° 291° (WNW) 1,689 5.1 -29.4°
Maximum altitude 17:11:08 55° 212° (SSW) 1,001 3.1 -29.9°
Enters shadow 17:11:16 55° 205° (SSW) 1,022 3.1 -29.9°
